TimeEST,TemperatureF,Dew PointF,Humidity,Sea Level PressureIn,VisibilityMPH,Wind Direction,Wind SpeedMPH,Gust SpeedMPH,PrecipitationIn,Events,Conditions,WindDirDegrees,DateUTC
12:53 AM,70.0,66.0,87,29.95,10.0,SW,9.2,-,N/A,,Clear,220,2013-02-13 05:53:00
1:53 AM,70.0,66.9,90,29.94,8.0,SW,10.4,-,N/A,,Clear,220,2013-02-13 06:53:00
2:53 AM,69.1,66.9,93,29.93,7.0,SW,8.1,-,N/A,,Partly Cloudy,220,2013-02-13 07:53:00
3:25 AM,69.8,66.2,88,29.92,7.0,SSW,8.1,18.4,N/A,,Mostly Cloudy,210,2013-02-13 08:25:00
3:53 AM,70.0,66.9,90,29.91,7.0,SSW,6.9,-,N/A,,Mostly Cloudy,210,2013-02-13 08:53:00
4:53 AM,69.1,66.9,93,29.91,8.0,SSW,8.1,-,N/A,,Mostly Cloudy,210,2013-02-13 09:53:00
5:53 AM,69.1,66.9,93,29.91,10.0,SSW,9.2,-,N/A,,Overcast,210,2013-02-13 10:53:00
6:53 AM,70.0,66.9,90,29.92,10.0,SSW,9.2,-,N/A,,Mostly Cloudy,200,2013-02-13 11:53:00
7:53 AM,70.0,66.9,90,29.94,8.0,SSW,10.4,-,N/A,,Overcast,210,2013-02-13 12:53:00
8:53 AM,72.0,66.0,81,29.94,9.0,SSW,12.7,-,N/A,,Overcast,200,2013-02-13 13:53:00
9:53 AM,72.0,66.0,81,29.94,10.0,SSW,13.8,19.6,N/A,,Overcast,210,2013-02-13 14:53:00
10:15 AM,73.4,66.2,78,29.95,10.0,SW,10.4,-,N/A,,Overcast,230,2013-02-13 15:15:00
10:53 AM,78.1,66.9,68,29.94,10.0,SSW,13.8,24.2,N/A,,Scattered Clouds,210,2013-02-13 15:53:00
11:53 AM,81.0,64.9,58,29.91,10.0,SW,13.8,26.5,N/A,,Scattered Clouds,220,2013-02-13 16:53:00
12:53 PM,82.9,64.0,53,29.88,10.0,SSW,17.3,24.2,N/A,,Mostly Cloudy,210,2013-02-13 17:53:00
1:53 PM,84.9,63.0,48,29.84,10.0,SW,18.4,25.3,N/A,,Scattered Clouds,220,2013-02-13 18:53:00
2:45 PM,80.6,64.4,58,29.84,10.0,West,19.6,31.1,N/A,,Mostly Cloudy,270,2013-02-13 19:45:00
2:53 PM,82.0,64.0,54,29.83,10.0,WNW,15.0,25.3,N/A,,Scattered Clouds,290,2013-02-13 19:53:00
3:53 PM,78.1,64.0,62,29.84,10.0,NW,19.6,23.0,N/A,,Mostly Cloudy,310,2013-02-13 20:53:00
4:53 PM,73.0,66.0,79,29.85,10.0,West,11.5,-,N/A,,Mostly Cloudy,270,2013-02-13 21:53:00
5:53 PM,71.1,68.0,90,29.87,7.0,WNW,8.1,-,0.00,Rain,Light Rain,300,2013-02-13 22:53:00
6:46 PM,68.0,66.2,94,29.90,4.0,NNW,20.7,26.5,0.08,Rain,Rain,330,2013-02-13 23:46:00
6:53 PM,66.0,64.0,93,29.89,5.0,NNW,13.8,26.5,0.09,Rain,Rain,340,2013-02-13 23:53:00
7:07 PM,64.4,62.6,94,29.90,5.0,NNW,10.4,27.6,0.01,Rain,Light Rain,330,2013-02-14 00:07:00
7:15 PM,64.4,62.6,94,29.91,3.0,NNW,15.0,27.6,0.04,Rain,Rain,330,2013-02-14 00:15:00
7:53 PM,64.0,61.0,90,29.92,6.0,NNW,4.6,-,0.05,Rain,Rain,330,2013-02-14 00:53:00
8:01 PM,62.6,60.8,94,29.92,9.0,NW,3.5,-,0.00,Rain,Light Rain,310,2013-02-14 01:01:00
8:53 PM,63.0,62.1,97,29.95,10.0,WSW,5.8,-,0.00,,Overcast,250,2013-02-14 01:53:00
9:53 PM,63.0,59.0,87,29.96,10.0,NNW,5.8,-,0.00,,Overcast,330,2013-02-14 02:53:00
10:53 PM,63.0,60.1,90,29.97,10.0,Calm,Calm,-,0.00,,Overcast,0,2013-02-14 03:53:00
11:53 PM,64.0,60.1,87,29.97,10.0,West,3.5,-,0.00,,Overcast,270,2013-02-14 04:53:00